M I D A S
Marine Information and Data Acquisition System
Tripno 1570 of the Zeeleeuw from 2008-09-19 06:57:54 to 2008-09-19 14:09:47
Back to CruiseResearch ActivitiesStationsMapUnderway DataData graphs

EquipmentUnitsComments
TimeDGPSUTC
LatitudeDGPSDM.mWGS84
LongitudeDGPSDM.mWGS84
SpeedMeteo Stationm/sRelative wind speed
DirectionMeteo StationdegRelative wind direction
TemperatureMeteo Stationdeg CelciusAir temperature
PressureMeteo StationPaAtmospheric pressure
HumidityMeteo Station%Relative humidity
Missing or incorrect values are displayed as -999
Metereological data collected by the RV Zeeleeuw from 2008-09-19 06:57:54 to 2008-09-19 14:09:47
Time Latitude Longitude Speed Direction Temperature Pressure Humidity
2008-09-19 07:00 51°13.664 2°55.875 -999 -999 -999 -999 -999
2008-09-19 07:02 51°13.721 2°55.714 -999 -999 -999 -999 -999
2008-09-19 07:04 51°13.738 2°55.717 -999 -999 -999 -999 -999
2008-09-19 07:06 51°13.887 2°55.598 -999 -999 -999 -999 -999
2008-09-19 07:08 51°14.101 2°55.425 -999 -999 -999 -999 -999
2008-09-19 07:10 51°14.342 2°55.087 -999 -999 -999 -999 -999
2008-09-19 07:12 51°14.635 2°54.65 -999 -999 -999 -999 -999
2008-09-19 07:14 51°14.962 2°54.282 -999 -999 -999 -999 -999
2008-09-19 07:16 51°15.298 2°53.937 -999 -999 -999 -999 -999
2008-09-19 07:18 51°15.651 2°53.628 -999 -999 -999 -999 -999
2008-09-19 07:20 51°16.017 2°53.349 -999 -999 -999 -999 -999
2008-09-19 07:22 51°16.388 2°53.09 -999 -999 -999 -999 -999
2008-09-19 07:24 51°16.755 2°52.837 -999 -999 -999 -999 -999
2008-09-19 07:26 51°17.123 2°52.59 -999 -999 -999 -999 -999
2008-09-19 07:28 51°17.505 2°52.408 -999 -999 -999 -999 -999
2008-09-19 07:30 51°17.885 2°52.291 -999 -999 -999 -999 -999
2008-09-19 07:32 51°18.273 2°52.224 -999 -999 -999 -999 -999
2008-09-19 07:34 51°18.666 2°52.158 -999 -999 -999 -999 -999
2008-09-19 07:36 51°19.057 2°52.062 -999 -999 -999 -999 -999
2008-09-19 07:38 51°19.451 2°51.985 -999 -999 -999 -999 -999
2008-09-19 07:40 51°19.836 2°51.898 -999 -999 -999 -999 -999
2008-09-19 07:42 51°20.213 2°51.723 -999 -999 -999 -999 -999
2008-09-19 07:44 51°20.561 2°51.339 -999 -999 -999 -999 -999
2008-09-19 07:46 51°20.919 2°51.014 -999 -999 -999 -999 -999
2008-09-19 07:48 51°21.306 2°51.053 -999 -999 -999 -999 -999
2008-09-19 07:50 51°21.658 2°51.273 -999 -999 -999 -999 -999
2008-09-19 07:52 51°22.025 2°51.377 -999 -999 -999 -999 -999
2008-09-19 07:54 51°22.422 2°51.299 -999 -999 -999 -999 -999
2008-09-19 07:56 51°22.821 2°51.251 -999 -999 -999 -999 -999
2008-09-19 07:58 51°23.22 2°51.188 -999 -999 -999 -999 -999
2008-09-19 08:00 51°23.618 2°51.116 -999 -999 -999 -999 -999
2008-09-19 08:02 51°24.017 2°51.061 -999 -999 -999 -999 -999
2008-09-19 08:04 51°24.413 2°51.002 -999 -999 -999 -999 -999
2008-09-19 08:06 51°24.804 2°50.926 -999 -999 -999 -999 -999
2008-09-19 08:08 51°25.19 2°50.847 -999 -999 -999 -999 -999
2008-09-19 08:10 51°25.576 2°50.771 -999 -999 -999 -999 -999
2008-09-19 08:12 51°25.962 2°50.695 -999 -999 -999 -999 -999
2008-09-19 08:14 51°26.352 2°50.636 -999 -999 -999 -999 -999
2008-09-19 08:16 51°26.745 2°50.602 -999 -999 -999 -999 -999
2008-09-19 08:18 51°27.137 2°50.576 -999 -999 -999 -999 -999
2008-09-19 08:20 51°27.53 2°50.533 -999 -999 -999 -999 -999
2008-09-19 08:22 51°27.92 2°50.502 -999 -999 -999 -999 -999
2008-09-19 08:24 51°28.307 2°50.468 -999 -999 -999 -999 -999
2008-09-19 08:26 51°28.692 2°50.451 -999 -999 -999 -999 -999
2008-09-19 08:28 51°29.067 2°50.431 -999 -999 -999 -999 -999
2008-09-19 08:30 51°29.349 2°50.742 -999 -999 -999 -999 -999
2008-09-19 08:32 51°29.494 2°51.252 -999 -999 -999 -999 -999
2008-09-19 08:34 51°29.66 2°51.75 -999 -999 -999 -999 -999
2008-09-19 08:36 51°29.818 2°52.258 -999 -999 -999 -999 -999
2008-09-19 08:38 51°29.965 2°52.775 -999 -999 -999 -999 -999
2008-09-19 08:40 51°30.109 2°53.291 -999 -999 -999 -999 -999
2008-09-19 08:42 51°30.244 2°53.81 -999 -999 -999 -999 -999
2008-09-19 08:44 51°30.379 2°54.329 -999 -999 -999 -999 -999
2008-09-19 08:46 51°30.527 2°54.837 -999 -999 -999 -999 -999
2008-09-19 08:48 51°30.666 2°55.347 -999 -999 -999 -999 -999
2008-09-19 08:50 51°30.8 2°55.865 -999 -999 -999 -999 -999
2008-09-19 08:52 51°30.971 2°56.35 -999 -999 -999 -999 -999
2008-09-19 08:54 51°31.172 2°56.803 -999 -999 -999 -999 -999
2008-09-19 08:56 51°31.398 2°57.225 -999 -999 -999 -999 -999
2008-09-19 08:58 51°31.631 2°57.639 -999 -999 -999 -999 -999
2008-09-19 09:00 51°31.884 2°58.035 -999 -999 -999 -999 -999
2008-09-19 09:02 51°32.133 2°58.428 -999 -999 -999 -999 -999
2008-09-19 09:04 51°32.375 2°58.825 -999 -999 -999 -999 -999
2008-09-19 09:06 51°32.628 2°59.208 -999 -999 -999 -999 -999
2008-09-19 09:08 51°32.945 2°59.404 -999 -999 -999 -999 -999
2008-09-19 09:10 51°33.222 2°59.013 -999 -999 -999 -999 -999
2008-09-19 09:12 51°33.435 2°58.463 -999 -999 -999 -999 -999
2008-09-19 09:14 51°33.653 2°57.907 -999 -999 -999 -999 -999
2008-09-19 09:16 51°33.869 2°57.342 -999 -999 -999 -999 -999
2008-09-19 09:18 51°34.073 2°56.762 -999 -999 -999 -999 -999
2008-09-19 09:20 51°34.185 2°56.1 -999 -999 -999 -999 -999
2008-09-19 09:22 51°34.133 2°55.414 -999 -999 -999 -999 -999
2008-09-19 09:24 51°33.865 2°54.79 -999 -999 -999 -999 -999
2008-09-19 09:26 51°33.601 2°54.164 -999 -999 -999 -999 -999
2008-09-19 09:28 51°33.338 2°53.543 -999 -999 -999 -999 -999
2008-09-19 09:30 51°33.069 2°52.909 -999 -999 -999 -999 -999
2008-09-19 09:32 51°32.826 2°52.27 -999 -999 -999 -999 -999
2008-09-19 09:34 51°32.573 2°51.633 -999 -999 -999 -999 -999
2008-09-19 09:36 51°32.318 2°51.005 -999 -999 -999 -999 -999
2008-09-19 09:38 51°32.06 2°50.376 -999 -999 -999 -999 -999
2008-09-19 09:40 51°31.795 2°49.759 -999 -999 -999 -999 -999
2008-09-19 09:42 51°31.54 2°49.138 -999 -999 -999 -999 -999
2008-09-19 09:44 51°31.274 2°48.517 -999 -999 -999 -999 -999
2008-09-19 09:46 51°31.017 2°47.881 -999 -999 -999 -999 -999
2008-09-19 09:48 51°30.962 2°47.217 -999 -999 -999 -999 -999
2008-09-19 09:50 51°31.283 2°46.994 -999 -999 -999 -999 -999
2008-09-19 09:52 51°31.64 2°46.964 -999 -999 -999 -999 -999
2008-09-19 09:54 51°31.998 2°46.914 -999 -999 -999 -999 -999
2008-09-19 09:56 51°32.352 2°46.896 -999 -999 -999 -999 -999
2008-09-19 09:58 51°32.709 2°46.878 -999 -999 -999 -999 -999
2008-09-19 10:00 51°33.062 2°46.919 -999 -999 -999 -999 -999
2008-09-19 10:02 51°33.416 2°46.957 -999 -999 -999 -999 -999
2008-09-19 10:04 51°33.766 2°46.985 -999 -999 -999 -999 -999
2008-09-19 10:06 51°34.116 2°47.043 -999 -999 -999 -999 -999
2008-09-19 10:08 51°34.467 2°47.078 -999 -999 -999 -999 -999
2008-09-19 10:10 51°34.806 2°47.152 -999 -999 -999 -999 -999
2008-09-19 10:12 51°35.128 2°47.353 -999 -999 -999 -999 -999
2008-09-19 10:14 51°35.451 2°47.541 -999 -999 -999 -999 -999
2008-09-19 10:16 51°35.777 2°47.707 -999 -999 -999 -999 -999
2008-09-19 10:18 51°36.089 2°47.927 -999 -999 -999 -999 -999
2008-09-19 10:20 51°36.404 2°48.128 -999 -999 -999 -999 -999
2008-09-19 10:22 51°36.707 2°48.366 -999 -999 -999 -999 -999
2008-09-19 10:24 51°37.006 2°48.619 -999 -999 -999 -999 -999
2008-09-19 10:26 51°37.306 2°48.877 -999 -999 -999 -999 -999
2008-09-19 10:28 51°37.607 2°49.127 -999 -999 -999 -999 -999
2008-09-19 10:30 51°37.91 2°49.373 -999 -999 -999 -999 -999
2008-09-19 10:32 51°38.212 2°49.613 -999 -999 -999 -999 -999
2008-09-19 10:34 51°38.509 2°49.883 -999 -999 -999 -999 -999
2008-09-19 10:36 51°38.809 2°50.145 -999 -999 -999 -999 -999
2008-09-19 10:38 51°39.111 2°50.394 -999 -999 -999 -999 -999
2008-09-19 10:40 51°39.243 2°50.86 -999 -999 -999 -999 -999
2008-09-19 10:42 51°39.038 2°51.389 -999 -999 -999 -999 -999
2008-09-19 10:44 51°38.815 2°51.913 -999 -999 -999 -999 -999
2008-09-19 10:46 51°38.591 2°52.432 -999 -999 -999 -999 -999
2008-09-19 10:48 51°38.359 2°52.943 -999 -999 -999 -999 -999
2008-09-19 10:50 51°38.102 2°53.439 -999 -999 -999 -999 -999
2008-09-19 10:52 51°37.837 2°53.922 -999 -999 -999 -999 -999
2008-09-19 10:54 51°37.49 2°54.224 -999 -999 -999 -999 -999
2008-09-19 10:56 51°37.101 2°53.859 -999 -999 -999 -999 -999
2008-09-19 10:58 51°36.798 2°53.305 -999 -999 -999 -999 -999
2008-09-19 11:00 51°36.503 2°52.732 -999 -999 -999 -999 -999
2008-09-19 11:02 51°36.211 2°52.166 -999 -999 -999 -999 -999
2008-09-19 11:04 51°35.921 2°51.606 -999 -999 -999 -999 -999
2008-09-19 11:06 51°35.627 2°51.057 -999 -999 -999 -999 -999
2008-09-19 11:08 51°35.237 2°51.192 -999 -999 -999 -999 -999
2008-09-19 11:10 51°34.868 2°51.514 -999 -999 -999 -999 -999
2008-09-19 11:12 51°34.539 2°51.895 -999 -999 -999 -999 -999
2008-09-19 11:14 51°34.323 2°52.404 -999 -999 -999 -999 -999
2008-09-19 11:16 51°34.169 2°52.952 -999 -999 -999 -999 -999
2008-09-19 11:18 51°34.146 2°53.522 -999 -999 -999 -999 -999
2008-09-19 11:20 51°34.278 2°54.033 -999 -999 -999 -999 -999
2008-09-19 11:22 51°34.437 2°54.528 -999 -999 -999 -999 -999
2008-09-19 11:24 51°34.619 2°55.003 -999 -999 -999 -999 -999
2008-09-19 11:26 51°34.805 2°55.472 -999 -999 -999 -999 -999
2008-09-19 11:28 51°34.952 2°55.982 -999 -999 -999 -999 -999
2008-09-19 11:30 51°35.063 2°56.517 -999 -999 -999 -999 -999
2008-09-19 11:32 51°35.147 2°57.07 -999 -999 -999 -999 -999
2008-09-19 11:34 51°35.227 2°57.628 -999 -999 -999 -999 -999
2008-09-19 11:36 51°35.161 2°58.155 -999 -999 -999 -999 -999
2008-09-19 11:38 51°34.755 2°58.375 -999 -999 -999 -999 -999
2008-09-19 11:40 51°34.329 2°58.544 -999 -999 -999 -999 -999
2008-09-19 11:42 51°33.922 2°58.784 -999 -999 -999 -999 -999
2008-09-19 11:44 51°33.514 2°59.035 -999 -999 -999 -999 -999
2008-09-19 11:46 51°33.11 2°59.297 -999 -999 -999 -999 -999
2008-09-19 11:48 51°32.693 2°59.506 -999 -999 -999 -999 -999
2008-09-19 11:50 51°32.249 2°59.43 -999 -999 -999 -999 -999
2008-09-19 11:52 51°31.819 2°59.219 -999 -999 -999 -999 -999
2008-09-19 11:54 51°31.38 2°59.01 -999 -999 -999 -999 -999
2008-09-19 11:56 51°30.943 2°58.827 -999 -999 -999 -999 -999
2008-09-19 11:58 51°30.509 2°58.655 -999 -999 -999 -999 -999
2008-09-19 13:00 51°19.257 2°55.343 -999 -999 -999 -999 -999
2008-09-19 13:02 51°19.272 2°55.53 -999 -999 -999 -999 -999
2008-09-19 13:04 51°19.292 2°55.68 -999 -999 -999 -999 -999
2008-09-19 13:06 51°19.322 2°55.82 -999 -999 -999 -999 -999
2008-09-19 13:08 51°19.359 2°55.956 -999 -999 -999 -999 -999
2008-09-19 13:10 51°19.406 2°56.086 -999 -999 -999 -999 -999
2008-09-19 13:12 51°19.456 2°56.216 -999 -999 -999 -999 -999
2008-09-19 13:14 51°19.504 2°56.348 -999 -999 -999 -999 -999
2008-09-19 13:16 51°19.484 2°56.486 -999 -999 -999 -999 -999
2008-09-19 13:18 51°19.446 2°56.558 -999 -999 -999 -999 -999
2008-09-19 13:20 51°19.425 2°56.618 -999 -999 -999 -999 -999
2008-09-19 13:22 51°19.373 2°56.72 -999 -999 -999 -999 -999
2008-09-19 13:24 51°19.247 2°56.735 -999 -999 -999 -999 -999
2008-09-19 13:26 51°19.183 2°56.65 -999 -999 -999 -999 -999
2008-09-19 13:28 51°19.2 2°56.564 -999 -999 -999 -999 -999
2008-09-19 13:30 51°19.254 2°56.58 -999 -999 -999 -999 -999
2008-09-19 13:32 51°19.282 2°56.614 -999 -999 -999 -999 -999
2008-09-19 13:34 51°19.298 2°56.655 -999 -999 -999 -999 -999
2008-09-19 13:36 51°19.318 2°56.674 -999 -999 -999 -999 -999
2008-09-19 13:38 51°19.218 2°56.427 -999 -999 -999 -999 -999
2008-09-19 13:40 51°18.973 2°56.047 -999 -999 -999 -999 -999
2008-09-19 13:42 51°18.736 2°55.62 -999 -999 -999 -999 -999
2008-09-19 13:44 51°18.493 2°55.203 -999 -999 -999 -999 -999
2008-09-19 13:46 51°18.246 2°54.794 -999 -999 -999 -999 -999
2008-09-19 13:48 51°18.004 2°54.379 -999 -999 -999 -999 -999
2008-09-19 13:50 51°17.786 2°53.947 -999 -999 -999 -999 -999
2008-09-19 13:52 51°17.496 2°53.625 -999 -999 -999 -999 -999
2008-09-19 13:54 51°17.168 2°53.408 -999 -999 -999 -999 -999
2008-09-19 13:56 51°16.814 2°53.319 -999 -999 -999 -999 -999
2008-09-19 13:58 51°16.455 2°53.586 -999 -999 -999 -999 -999
2008-09-19 14:00 51°16.09 2°53.791 -999 -999 -999 -999 -999
2008-09-19 14:02 51°15.714 2°53.983 -999 -999 -999 -999 -999
2008-09-19 14:04 51°15.35 2°54.181 -999 -999 -999 -999 -999
2008-09-19 14:06 51°14.994 2°54.419 -999 -999 -999 -999 -999
2008-09-19 14:08 51°14.649 2°54.717 -999 -999 -999 -999 -999